Home   Weather   Hamilton   Past weeks

Flag for Bermuda Past Weather in Hamilton, Bermuda — Yesterday and Last 2 Weeks

Now
75 °F

Passing clouds.


Feels Like: 77 °F
Forecast: 69 / 73 °F
Wind: 12 mph from South

Location: Bermuda

Current Time: Apr 28, 2017 at 5:21:15 pm

Latest Report: Apr 28, 2017 at 3:55 pm


Visibility: N/A

Pressure: 30.30 "Hg

Humidity: 74%

Dew Point: 66 °F

Location of HamiltonLocation

Past Weather in Hamilton — Graph

°F

Hamilton Temperature Yesterday

Maximum temperature yesterday: 75 °F (at 12:55 pm)
Minimum temperature yesterday: 70 °F (at 12:55 am)
Average temperature yesterday: 71 °F

High & Low Weather Summary for the Past Weeks

 TemperatureHumidityPressure
High75 °F (Apr 27, 12:55 pm)94% (Apr 24, 5:55 am)30.33 "Hg (Apr 24, 5:55 am)
Low61 °F (Apr 16, 1:55 am)40% (Apr 15, 12:55 pm)30.01 "Hg (Apr 22, 3:55 am)
Average68 °F72%30.16 "Hg
* Reported Apr 13 3:55 pm — Apr 28 3:55 pm, Hamilton, Weather by CustomWeather, © 2017

Note: Actual official high and low records may vary slightly from our data, if they occured in-between our weather recording intervals... More about our weather records

Advertising

Hamilton Weather History for the Previous 24 Hours

Scroll right to see more
 ConditionsComfort  
Time TempWeatherWind HumidityBarometerVisibility
3:55 pm
Fri, Apr 28
75 °FPassing clouds.12 mph74%30.30 "HgN/A
2:55 pm75 °FScattered clouds.12 mph74%30.30 "HgN/A
2:31 pm75 °FScattered clouds.10 mph74%30.30 "HgN/A
2:03 pm75 °FPartly sunny.12 mph74%30.30 "HgN/A
1:55 pm75 °FBroken clouds.12 mph74%30.33 "HgN/A
12:55 pm75 °FBroken clouds.10 mph74%30.33 "HgN/A
11:55 am75 °FBroken clouds.10 mph74%30.33 "HgN/A
10:55 am73 °FBroken clouds.10 mph74%30.33 "HgN/A
9:55 am73 °FPassing clouds.9 mph78%30.30 "HgN/A
8:55 am72 °FScattered clouds.9 mph83%30.30 "HgN/A
7:55 am72 °FBroken clouds.9 mph83%30.27 "HgN/A
6:55 am70 °FScattered clouds.12 mph83%30.24 "HgN/A
5:55 am70 °FPassing clouds.10 mph83%30.21 "HgN/A
4:55 am70 °FPassing clouds.10 mph88%30.21 "HgN/A
3:55 am70 °FPassing clouds.12 mph88%30.21 "HgN/A
2:55 am70 °FPassing clouds.13 mph88%30.21 "HgN/A
1:55 am70 °FPassing clouds.14 mph88%30.21 "HgN/A
12:55 am70 °FPassing clouds.16 mph88%30.21 "HgN/A
11:55 pm
Thu, Apr 27
70 °FPassing clouds.15 mph88%30.24 "HgN/A
10:55 pm70 °FPartly cloudy.15 mph88%30.24 "HgN/A
9:55 pm70 °FPassing clouds.15 mph88%30.21 "HgN/A
8:55 pm70 °FScattered showers. Partly cloudy.13 mph88%30.21 "HgN/A
7:55 pm70 °FScattered showers. Broken clouds.15 mph88%30.21 "HgN/A
6:55 pm72 °FScattered showers. Broken clouds.13 mph83%30.21 "HgN/A
6:08 pm72 °FScattered showers. Broken clouds.14 mph83%30.18 "HgN/A
5:55 pm72 °FScattered showers. Partly sunny.14 mph83%30.18 "HgN/A
5:24 pm72 °FScattered showers. Partly sunny.14 mph83%30.18 "HgN/A
Weather by CustomWeather, © 2017

See weather overviewHow to use our weather pages